Year,Month,Day,Hour,Minute,Value (Times are PST for temperature in C)
2011,05,19,00,00,6.60
2011,05,19,00,01,6.60
2011,05,19,00,02,6.60
2011,05,19,00,03,6.60
2011,05,19,00,04,6.60
2011,05,19,00,05,6.60
2011,05,19,00,06,6.60
2011,05,19,00,07,6.60
2011,05,19,00,08,6.40
2011,05,19,00,09,6.40
2011,05,19,00,10,6.40
2011,05,19,00,11,6.40
2011,05,19,00,12,6.40
2011,05,19,00,13,6.40
2011,05,19,00,14,6.40
2011,05,19,00,15,6.40
2011,05,19,00,16,6.40
2011,05,19,00,17,6.40
2011,05,19,00,18,6.40
2011,05,19,00,19,6.40
2011,05,19,00,20,6.40
2011,05,19,00,21,6.40
2011,05,19,00,22,6.40
2011,05,19,00,23,6.40
2011,05,19,00,24,6.30
2011,05,19,00,25,6.30
2011,05,19,00,26,6.30
2011,05,19,00,27,6.30
2011,05,19,00,28,6.30
2011,05,19,00,29,6.30
2011,05,19,00,30,6.30
2011,05,19,00,31,6.30
2011,05,19,00,32,6.30
2011,05,19,00,33,6.30
2011,05,19,00,34,6.30
2011,05,19,00,35,6.20
2011,05,19,00,36,6.20
2011,05,19,00,37,6.20
2011,05,19,00,38,6.20
2011,05,19,00,39,6.20
2011,05,19,00,40,6.20
2011,05,19,00,41,6.20
2011,05,19,00,42,6.20
2011,05,19,00,43,6.20
2011,05,19,00,44,6.20
2011,05,19,00,45,6.20
2011,05,19,00,46,6.20
2011,05,19,00,47,6.20
2011,05,19,00,48,6.20
2011,05,19,00,49,6.20
2011,05,19,00,50,6.10
2011,05,19,00,51,6.10
2011,05,19,00,52,6.10
2011,05,19,00,53,6.10
2011,05,19,00,54,6.10
2011,05,19,00,55,6.10
2011,05,19,00,56,6.10
2011,05,19,00,57,6.10
2011,05,19,00,58,6.10
2011,05,19,00,59,6.00
2011,05,19,01,00,6.00
2011,05,19,01,01,6.00
2011,05,19,01,02,6.00
2011,05,19,01,03,6.00
2011,05,19,01,04,6.00
2011,05,19,01,05,6.00
2011,05,19,01,06,6.00
2011,05,19,01,07,6.00
2011,05,19,01,08,6.00
2011,05,19,01,09,6.00
2011,05,19,01,10,6.00
2011,05,19,01,11,5.90
2011,05,19,01,12,5.90
2011,05,19,01,13,5.90
2011,05,19,01,14,5.90
2011,05,19,01,15,5.90
2011,05,19,01,16,5.90
2011,05,19,01,17,5.90
2011,05,19,01,18,5.90
2011,05,19,01,19,5.90
2011,05,19,01,20,5.90
2011,05,19,01,21,5.90
2011,05,19,01,22,5.80
2011,05,19,01,23,5.80
2011,05,19,01,24,5.80
2011,05,19,01,25,5.80
2011,05,19,01,26,5.80
2011,05,19,01,27,5.80
2011,05,19,01,28,5.80
2011,05,19,01,29,5.70
2011,05,19,01,30,5.70
2011,05,19,01,31,5.70
2011,05,19,01,32,5.70
2011,05,19,01,33,5.70
2011,05,19,01,34,5.70
2011,05,19,01,35,5.70
2011,05,19,01,36,5.70
2011,05,19,01,37,5.70
2011,05,19,01,38,5.70
2011,05,19,01,39,5.70
2011,05,19,01,40,5.70
2011,05,19,01,41,5.70
2011,05,19,01,42,5.70
2011,05,19,01,43,5.70
2011,05,19,01,44,5.70
2011,05,19,01,45,5.70
2011,05,19,01,46,5.60
2011,05,19,01,47,5.60
2011,05,19,01,48,5.60
2011,05,19,01,49,5.50
2011,05,19,01,50,5.50
2011,05,19,01,51,5.50
2011,05,19,01,52,5.50
2011,05,19,01,53,5.40
2011,05,19,01,54,5.40
2011,05,19,01,55,5.40
2011,05,19,01,56,5.40
2011,05,19,01,57,5.40
2011,05,19,01,58,5.40
2011,05,19,01,59,5.30
2011,05,19,02,00,5.30
2011,05,19,02,01,5.30
2011,05,19,02,02,5.30
2011,05,19,02,03,5.30
2011,05,19,02,04,5.30
2011,05,19,02,05,5.30
2011,05,19,02,06,5.30
2011,05,19,02,07,5.30
2011,05,19,02,08,5.30
2011,05,19,02,09,5.30
2011,05,19,02,10,5.30
2011,05,19,02,11,5.30
2011,05,19,02,12,5.30
2011,05,19,02,13,5.30
2011,05,19,02,14,5.30
2011,05,19,02,15,5.30
2011,05,19,02,16,5.30
2011,05,19,02,17,5.30
2011,05,19,02,18,5.30
2011,05,19,02,19,5.30
2011,05,19,02,20,5.30
2011,05,19,02,21,5.30
2011,05,19,02,22,5.30
2011,05,19,02,23,5.30
2011,05,19,02,24,5.30
2011,05,19,02,25,5.30
2011,05,19,02,26,5.30
2011,05,19,02,27,5.30
2011,05,19,02,28,5.30
2011,05,19,02,29,5.30
2011,05,19,02,30,5.20
2011,05,19,02,31,5.20
2011,05,19,02,32,5.20
2011,05,19,02,33,5.20
2011,05,19,02,34,5.20
2011,05,19,02,35,5.10
2011,05,19,02,36,5.10
2011,05,19,02,37,5.10
2011,05,19,02,38,5.10
2011,05,19,02,39,5.10
2011,05,19,02,40,5.10
2011,05,19,02,41,5.10
2011,05,19,02,42,5.10
2011,05,19,02,43,5.10
2011,05,19,02,44,5.10
2011,05,19,02,45,5.10
2011,05,19,02,46,5.10
2011,05,19,02,47,5.10
2011,05,19,02,48,5.10
2011,05,19,02,49,5.00
2011,05,19,02,50,4.90
2011,05,19,02,51,4.90
2011,05,19,02,52,4.90
2011,05,19,02,53,4.90
2011,05,19,02,54,4.90
2011,05,19,02,55,4.90
2011,05,19,02,56,4.90
2011,05,19,02,57,4.90
2011,05,19,02,58,4.90
2011,05,19,02,59,4.90
2011,05,19,03,00,4.90
2011,05,19,03,01,4.90
2011,05,19,03,02,4.90
2011,05,19,03,03,4.90
2011,05,19,03,04,4.90
2011,05,19,03,05,4.90
2011,05,19,03,06,4.90
2011,05,19,03,07,4.90
2011,05,19,03,08,4.80
2011,05,19,03,09,4.80
2011,05,19,03,10,4.80
2011,05,19,03,11,4.80
2011,05,19,03,12,4.80
2011,05,19,03,13,4.80
2011,05,19,03,14,4.70
2011,05,19,03,15,4.70
2011,05,19,03,16,4.70
2011,05,19,03,17,4.70
2011,05,19,03,18,4.70
2011,05,19,03,19,4.60
2011,05,19,03,20,4.60
2011,05,19,03,21,4.60
2011,05,19,03,22,4.60
2011,05,19,03,23,4.70
2011,05,19,03,24,4.70
2011,05,19,03,25,4.70
2011,05,19,03,26,4.70
2011,05,19,03,27,4.70
2011,05,19,03,28,4.60
2011,05,19,03,29,4.60
2011,05,19,03,30,4.60
2011,05,19,03,31,4.60
2011,05,19,03,32,4.60
2011,05,19,03,33,4.60
2011,05,19,03,34,4.60
2011,05,19,03,35,4.60
2011,05,19,03,36,4.60
2011,05,19,03,37,4.60
2011,05,19,03,38,4.50
2011,05,19,03,39,4.50
2011,05,19,03,40,4.50
2011,05,19,03,41,4.50
2011,05,19,03,42,4.40
2011,05,19,03,43,4.40
2011,05,19,03,44,4.40
2011,05,19,03,45,4.40
2011,05,19,03,46,4.40
2011,05,19,03,47,4.40
2011,05,19,03,48,4.30
2011,05,19,03,49,4.30
2011,05,19,03,50,4.30
2011,05,19,03,51,4.30
2011,05,19,03,52,4.30
2011,05,19,03,53,4.30
2011,05,19,03,54,4.30
2011,05,19,03,55,4.30
2011,05,19,03,56,4.30
2011,05,19,03,57,4.30
2011,05,19,03,58,4.30
2011,05,19,03,59,4.40
2011,05,19,04,00,4.40
2011,05,19,04,01,4.40
2011,05,19,04,02,4.40
2011,05,19,04,03,4.40
2011,05,19,04,04,4.40
2011,05,19,04,05,4.40
2011,05,19,04,06,4.40
2011,05,19,04,07,4.40
2011,05,19,04,08,4.40
2011,05,19,04,09,4.30
2011,05,19,04,10,4.30
2011,05,19,04,11,4.30
2011,05,19,04,12,4.30
2011,05,19,04,13,4.20
2011,05,19,04,14,4.20
2011,05,19,04,15,4.20
2011,05,19,04,16,4.20
2011,05,19,04,17,4.20
2011,05,19,04,18,4.20
2011,05,19,04,19,4.20
2011,05,19,04,20,4.20
2011,05,19,04,21,4.20
2011,05,19,04,22,4.20
2011,05,19,04,23,4.20
2011,05,19,04,24,4.20
2011,05,19,04,25,4.20
2011,05,19,04,26,4.20
2011,05,19,04,27,4.20
2011,05,19,04,28,4.20
2011,05,19,04,29,4.20
2011,05,19,04,30,4.20
2011,05,19,04,31,4.20
2011,05,19,04,32,4.20
2011,05,19,04,33,4.20
2011,05,19,04,34,4.20
2011,05,19,04,35,4.20
2011,05,19,04,36,4.20
2011,05,19,04,37,4.20
2011,05,19,04,38,4.20
2011,05,19,04,39,4.20
2011,05,19,04,40,4.20
2011,05,19,04,41,4.20
2011,05,19,04,42,4.20
2011,05,19,04,43,4.20
2011,05,19,04,44,4.20
2011,05,19,04,45,4.20
2011,05,19,04,46,4.20
2011,05,19,04,47,4.20
2011,05,19,04,48,4.20
2011,05,19,04,49,4.20
2011,05,19,04,50,4.20
2011,05,19,04,51,4.20
2011,05,19,04,52,4.20
2011,05,19,04,53,4.20
2011,05,19,04,54,4.20
2011,05,19,04,55,4.20
2011,05,19,04,56,4.20
2011,05,19,04,57,4.10
2011,05,19,04,58,4.10
2011,05,19,04,59,4.10
2011,05,19,05,00,4.10
2011,05,19,05,01,4.10
2011,05,19,05,02,4.10
2011,05,19,05,03,4.10
2011,05,19,05,04,4.00
2011,05,19,05,05,4.00
2011,05,19,05,06,4.00
2011,05,19,05,07,4.00
2011,05,19,05,08,4.00
2011,05,19,05,09,4.00
2011,05,19,05,10,4.00
2011,05,19,05,11,4.00
2011,05,19,05,12,4.00
2011,05,19,05,13,4.00
2011,05,19,05,14,4.00
2011,05,19,05,15,4.00
2011,05,19,05,16,4.00
2011,05,19,05,17,4.00
2011,05,19,05,18,4.00
2011,05,19,05,19,4.00
2011,05,19,05,20,4.00
2011,05,19,05,21,3.90
2011,05,19,05,22,3.90
2011,05,19,05,23,3.90
2011,05,19,05,24,3.90
2011,05,19,05,25,3.90
2011,05,19,05,26,3.90
2011,05,19,05,27,3.80
2011,05,19,05,28,3.80
2011,05,19,05,29,3.80
2011,05,19,05,30,3.80
2011,05,19,05,31,3.80
2011,05,19,05,32,3.80
2011,05,19,05,33,3.80
2011,05,19,05,34,3.80
2011,05,19,05,35,3.80
2011,05,19,05,36,3.80
2011,05,19,05,37,3.80
2011,05,19,05,38,3.80
2011,05,19,05,39,3.80
2011,05,19,05,40,3.80
2011,05,19,05,41,3.80
2011,05,19,05,42,3.80
2011,05,19,05,43,3.80
2011,05,19,05,44,3.80
2011,05,19,05,45,3.80
2011,05,19,05,46,3.80
2011,05,19,05,47,3.80
2011,05,19,05,48,3.80
2011,05,19,05,49,3.80
2011,05,19,05,50,3.80
2011,05,19,05,51,3.80
2011,05,19,05,52,3.80
2011,05,19,05,53,3.80
2011,05,19,05,54,3.80
2011,05,19,05,55,3.80
2011,05,19,05,56,3.80
2011,05,19,05,57,3.80
2011,05,19,05,58,3.80
2011,05,19,05,59,3.80
2011,05,19,06,00,3.80
2011,05,19,06,01,3.80
2011,05,19,06,02,3.80
2011,05,19,06,03,3.80
2011,05,19,06,04,3.80
2011,05,19,06,05,3.80
2011,05,19,06,06,3.80
2011,05,19,06,07,3.80
2011,05,19,06,08,3.80
2011,05,19,06,09,3.80
2011,05,19,06,10,3.80
2011,05,19,06,11,3.80
2011,05,19,06,12,3.80
2011,05,19,06,13,3.80
2011,05,19,06,14,3.80
2011,05,19,06,15,3.80
2011,05,19,06,16,3.80
2011,05,19,06,17,3.80
2011,05,19,06,18,3.80
2011,05,19,06,19,3.80
2011,05,19,06,20,3.80
2011,05,19,06,21,3.80
2011,05,19,06,22,3.80
2011,05,19,06,23,3.80
2011,05,19,06,24,3.90
2011,05,19,06,25,3.90
2011,05,19,06,26,3.90
2011,05,19,06,27,3.90
2011,05,19,06,28,3.90
2011,05,19,06,29,3.90
2011,05,19,06,30,3.90
2011,05,19,06,31,4.00
2011,05,19,06,32,4.00
2011,05,19,06,33,4.00
2011,05,19,06,34,4.00
2011,05,19,06,35,4.00
2011,05,19,06,36,4.00
2011,05,19,06,37,4.10
2011,05,19,06,38,4.10
2011,05,19,06,39,4.10
2011,05,19,06,40,4.10
2011,05,19,06,41,4.20
2011,05,19,06,42,4.20
2011,05,19,06,43,4.20
2011,05,19,06,44,4.20
2011,05,19,06,45,4.20
2011,05,19,06,46,4.20
2011,05,19,06,47,4.20
2011,05,19,06,48,4.20
2011,05,19,06,49,4.20
2011,05,19,06,50,4.20
2011,05,19,06,51,4.30
2011,05,19,06,52,4.30
2011,05,19,06,53,4.30
2011,05,19,06,54,4.30
2011,05,19,06,55,4.30
2011,05,19,06,56,4.40
2011,05,19,06,57,4.40
2011,05,19,06,58,4.40
2011,05,19,06,59,4.50
2011,05,19,07,00,4.50
2011,05,19,07,01,4.50
2011,05,19,07,02,4.50
2011,05,19,07,03,4.60
2011,05,19,07,04,4.60
2011,05,19,07,05,4.60
2011,05,19,07,06,4.60
2011,05,19,07,07,4.70
2011,05,19,07,08,4.70
2011,05,19,07,09,4.70
2011,05,19,07,10,4.80
2011,05,19,07,11,4.80
2011,05,19,07,12,4.80
2011,05,19,07,13,4.80
2011,05,19,07,14,4.90
2011,05,19,07,15,4.90
2011,05,19,07,16,4.90
2011,05,19,07,17,4.90
2011,05,19,07,18,4.90
2011,05,19,07,19,4.90
2011,05,19,07,20,5.00
2011,05,19,07,21,5.10
2011,05,19,07,22,5.10
2011,05,19,07,23,5.10
2011,05,19,07,24,5.10
2011,05,19,07,25,5.20
2011,05,19,07,26,5.20
2011,05,19,07,27,5.20
2011,05,19,07,28,5.30
2011,05,19,07,29,5.30
2011,05,19,07,30,5.30
2011,05,19,07,31,5.30
2011,05,19,07,32,5.30
2011,05,19,07,33,5.40
2011,05,19,07,34,5.40
2011,05,19,07,35,5.50
2011,05,19,07,36,5.50
2011,05,19,07,37,5.60
2011,05,19,07,38,5.70
2011,05,19,07,39,5.70
2011,05,19,07,40,5.70
2011,05,19,07,41,5.80
2011,05,19,07,42,5.90
2011,05,19,07,43,5.90
2011,05,19,07,44,6.00
2011,05,19,07,45,6.00
2011,05,19,07,46,6.10
2011,05,19,07,47,6.10
2011,05,19,07,48,6.20
2011,05,19,07,49,6.20
2011,05,19,07,50,6.20
2011,05,19,07,51,6.30
2011,05,19,07,52,6.30
2011,05,19,07,53,6.40
2011,05,19,07,54,6.40
2011,05,19,07,55,6.40
2011,05,19,07,56,6.60
2011,05,19,07,57,6.60
2011,05,19,07,58,6.60
2011,05,19,07,59,6.70
2011,05,19,08,00,6.80
2011,05,19,08,01,6.80
2011,05,19,08,02,6.90
2011,05,19,08,03,7.00
2011,05,19,08,04,7.10
2011,05,19,08,05,7.20
2011,05,19,08,06,7.30
2011,05,19,08,07,7.40
2011,05,19,08,08,7.50
2011,05,19,08,09,7.50
2011,05,19,08,10,7.60
2011,05,19,08,11,7.70
2011,05,19,08,12,7.80
2011,05,19,08,13,7.90
2011,05,19,08,14,8.00
2011,05,19,08,15,8.00
2011,05,19,08,16,8.10
2011,05,19,08,17,8.20
2011,05,19,08,18,8.30
2011,05,19,08,19,8.40
2011,05,19,08,20,8.50
2011,05,19,08,21,8.60
2011,05,19,08,22,8.70
2011,05,19,08,23,8.70
2011,05,19,08,24,8.80
2011,05,19,08,25,8.90
2011,05,19,08,26,9.00
2011,05,19,08,27,9.10
2011,05,19,08,28,9.20
2011,05,19,08,29,9.20
2011,05,19,08,30,9.30
2011,05,19,08,31,9.40
2011,05,19,08,32,9.40
2011,05,19,08,33,9.50
2011,05,19,08,34,9.50
2011,05,19,08,35,9.60
2011,05,19,08,36,9.70
2011,05,19,08,37,9.70
2011,05,19,08,38,9.70
2011,05,19,08,39,9.80
2011,05,19,08,40,9.80
2011,05,19,08,41,9.90
2011,05,19,08,42,9.90
2011,05,19,08,43,9.90
2011,05,19,08,44,10.00
2011,05,19,08,45,10.10
2011,05,19,08,46,10.10
2011,05,19,08,47,10.10
2011,05,19,08,48,10.20
2011,05,19,08,49,10.30
2011,05,19,08,50,10.40
2011,05,19,08,51,10.50
2011,05,19,08,52,10.60
2011,05,19,08,53,10.60
2011,05,19,08,54,10.60
2011,05,19,08,55,10.60
2011,05,19,08,56,10.60
2011,05,19,08,57,10.70
2011,05,19,08,58,10.80
2011,05,19,08,59,10.90
2011,05,19,09,00,10.90
2011,05,19,09,01,10.90
2011,05,19,09,02,11.00
2011,05,19,09,03,11.10
2011,05,19,09,04,11.10
2011,05,19,09,05,11.10
2011,05,19,09,06,11.20
2011,05,19,09,07,11.30
2011,05,19,09,08,11.30
2011,05,19,09,09,11.40
2011,05,19,09,10,11.40
2011,05,19,09,11,11.40
2011,05,19,09,12,11.40
2011,05,19,09,13,11.50
2011,05,19,09,14,11.60
2011,05,19,09,15,11.60
2011,05,19,09,16,11.60
2011,05,19,09,17,11.60
2011,05,19,09,18,11.60
2011,05,19,09,19,11.70
2011,05,19,09,20,11.70
2011,05,19,09,21,11.80
2011,05,19,09,22,11.80
2011,05,19,09,23,11.80
2011,05,19,09,24,11.80
2011,05,19,09,25,11.80
2011,05,19,09,26,11.90
2011,05,19,09,27,11.90
2011,05,19,09,28,11.90
2011,05,19,09,29,12.00
2011,05,19,09,30,12.00
2011,05,19,09,31,12.00
2011,05,19,09,32,12.00
2011,05,19,09,33,12.10
2011,05,19,09,34,12.10
2011,05,19,09,35,12.10
2011,05,19,09,36,12.20
2011,05,19,09,37,12.20
2011,05,19,09,38,12.30
2011,05,19,09,39,12.30
2011,05,19,09,40,12.40
2011,05,19,09,41,12.40
2011,05,19,09,42,12.50
2011,05,19,09,43,12.50
2011,05,19,09,44,12.60
2011,05,19,09,45,12.60
2011,05,19,09,46,12.70
2011,05,19,09,47,12.70
2011,05,19,09,48,12.80
2011,05,19,09,49,12.80
2011,05,19,09,50,12.80
2011,05,19,09,51,12.80
2011,05,19,09,52,12.80
2011,05,19,09,53,12.80
2011,05,19,09,54,12.90
2011,05,19,09,55,12.90
2011,05,19,09,56,12.90
2011,05,19,09,57,12.90
2011,05,19,09,58,13.00
2011,05,19,09,59,13.00
2011,05,19,10,00,13.00
2011,05,19,10,01,13.00
2011,05,19,10,02,13.00
2011,05,19,10,03,13.00
2011,05,19,10,04,13.00
2011,05,19,10,05,13.00
2011,05,19,10,06,13.10
2011,05,19,10,07,13.10
2011,05,19,10,08,13.10
2011,05,19,10,09,13.20
2011,05,19,10,10,13.20
2011,05,19,10,11,13.20
2011,05,19,10,12,13.30
2011,05,19,10,13,13.30
2011,05,19,10,14,13.30
2011,05,19,10,15,13.30
2011,05,19,10,16,13.30
2011,05,19,10,17,13.30
2011,05,19,10,18,13.40
2011,05,19,10,19,13.40
2011,05,19,10,20,13.50
2011,05,19,10,21,13.50
2011,05,19,10,22,13.60
2011,05,19,10,23,13.70
2011,05,19,10,24,13.70
2011,05,19,10,25,13.80
2011,05,19,10,26,13.80
2011,05,19,10,27,13.90
2011,05,19,10,28,13.90
2011,05,19,10,29,14.00
2011,05,19,10,30,14.00
2011,05,19,10,31,14.10
2011,05,19,10,32,14.10
2011,05,19,10,33,14.20
2011,05,19,10,34,14.20
2011,05,19,10,35,14.20
2011,05,19,10,36,14.20
2011,05,19,10,37,14.20
2011,05,19,10,38,14.20
2011,05,19,10,39,14.30
2011,05,19,10,40,14.30
2011,05,19,10,41,14.30
2011,05,19,10,42,14.30
2011,05,19,10,43,14.30
2011,05,19,10,44,14.40
2011,05,19,10,45,14.40
2011,05,19,10,46,14.40
2011,05,19,10,47,14.40
2011,05,19,10,48,14.40
2011,05,19,10,49,14.50
2011,05,19,10,50,14.50
2011,05,19,10,51,14.50
2011,05,19,10,52,14.50
2011,05,19,10,53,14.50
2011,05,19,10,54,14.50
2011,05,19,10,55,14.50
2011,05,19,10,56,14.40
2011,05,19,10,57,14.40
2011,05,19,10,58,14.50
2011,05,19,10,59,14.50
2011,05,19,11,00,14.50
2011,05,19,11,01,14.50
2011,05,19,11,02,14.50
2011,05,19,11,03,14.60
2011,05,19,11,04,14.60
2011,05,19,11,05,14.60
2011,05,19,11,06,14.70
2011,05,19,11,07,14.70
2011,05,19,11,08,14.80
2011,05,19,11,09,14.80
2011,05,19,11,10,14.80
2011,05,19,11,11,14.80
2011,05,19,11,12,14.90
2011,05,19,11,13,14.90
2011,05,19,11,14,14.90
2011,05,19,11,15,14.90
2011,05,19,11,16,15.00
2011,05,19,11,17,15.00
2011,05,19,11,18,15.00
2011,05,19,11,19,15.10
2011,05,19,11,20,15.10
2011,05,19,11,21,15.10
2011,05,19,11,22,15.10
2011,05,19,11,23,15.10
2011,05,19,11,24,15.10
2011,05,19,11,25,15.10
2011,05,19,11,26,15.10
2011,05,19,11,27,15.10
2011,05,19,11,28,15.10
2011,05,19,11,29,15.10
2011,05,19,11,30,15.10
2011,05,19,11,31,15.10
2011,05,19,11,32,15.10
2011,05,19,11,33,15.10
2011,05,19,11,34,15.20
2011,05,19,11,35,15.20
2011,05,19,11,36,15.20
2011,05,19,11,37,15.20
2011,05,19,11,38,15.20
2011,05,19,11,39,15.20
2011,05,19,11,40,15.10
2011,05,19,11,41,15.10
2011,05,19,11,42,15.10
2011,05,19,11,43,15.10
2011,05,19,11,44,15.10
2011,05,19,11,45,15.20
2011,05,19,11,46,15.20
2011,05,19,11,47,15.20
2011,05,19,11,48,15.20
2011,05,19,11,49,15.30
2011,05,19,11,50,15.30
2011,05,19,11,51,15.30
2011,05,19,11,52,15.30
2011,05,19,11,53,15.30
2011,05,19,11,54,15.30
2011,05,19,11,55,15.30
2011,05,19,11,56,15.30
2011,05,19,11,57,15.30
2011,05,19,11,58,15.40
2011,05,19,11,59,15.40
2011,05,19,12,00,15.40
2011,05,19,12,01,15.50
2011,05,19,12,02,15.50
2011,05,19,12,03,15.60
2011,05,19,12,04,15.60
2011,05,19,12,05,15.60
2011,05,19,12,06,15.60
2011,05,19,12,07,15.60
2011,05,19,12,08,15.60
2011,05,19,12,09,15.60
2011,05,19,12,10,15.60
2011,05,19,12,11,15.50
2011,05,19,12,12,15.50
2011,05,19,12,13,15.50
2011,05,19,12,14,15.50
2011,05,19,12,15,15.50
2011,05,19,12,16,15.50
2011,05,19,12,17,15.60
2011,05,19,12,18,15.70
2011,05,19,12,19,15.80
2011,05,19,12,20,15.80
2011,05,19,12,21,15.80
2011,05,19,12,22,15.80
2011,05,19,12,23,15.80
2011,05,19,12,24,15.80
2011,05,19,12,25,15.80
2011,05,19,12,26,15.80
2011,05,19,12,27,15.80
2011,05,19,12,28,15.80
2011,05,19,12,29,15.80
2011,05,19,12,30,15.80
2011,05,19,12,31,15.80
2011,05,19,12,32,15.80
2011,05,19,12,33,15.80
2011,05,19,12,34,15.80
2011,05,19,12,35,15.80
2011,05,19,12,36,15.80
2011,05,19,12,37,15.80
2011,05,19,12,38,15.90
2011,05,19,12,39,15.90
2011,05,19,12,40,15.90
2011,05,19,12,41,16.00
2011,05,19,12,42,16.10
2011,05,19,12,43,16.10
2011,05,19,12,44,16.10
2011,05,19,12,45,16.10
2011,05,19,12,46,16.10
2011,05,19,12,47,16.10
2011,05,19,12,48,16.10
2011,05,19,12,49,16.10
2011,05,19,12,50,16.10
2011,05,19,12,51,16.10
2011,05,19,12,52,16.20
2011,05,19,12,53,16.20
2011,05,19,12,54,16.20
2011,05,19,12,55,16.20
2011,05,19,12,56,16.30
2011,05,19,12,57,16.30
2011,05,19,12,58,16.30
2011,05,19,12,59,16.40
2011,05,19,13,00,16.40
2011,05,19,13,01,16.50
2011,05,19,13,02,16.60
2011,05,19,13,03,16.70
2011,05,19,13,04,16.70
2011,05,19,13,05,16.80
2011,05,19,13,06,16.90
2011,05,19,13,07,16.90
2011,05,19,13,08,16.90
2011,05,19,13,09,16.90
2011,05,19,13,10,17.00
2011,05,19,13,11,17.00
2011,05,19,13,12,17.00
2011,05,19,13,13,17.10
2011,05,19,13,14,17.20
2011,05,19,13,15,17.20
2011,05,19,13,16,17.30
2011,05,19,13,17,17.30
2011,05,19,13,18,17.30
2011,05,19,13,19,17.30
2011,05,19,13,20,17.30
2011,05,19,13,21,17.40
2011,05,19,13,22,17.40
2011,05,19,13,23,17.40
2011,05,19,13,24,17.50
2011,05,19,13,25,17.50
2011,05,19,13,26,17.50
2011,05,19,13,27,17.50
2011,05,19,13,28,17.60
2011,05,19,13,29,17.60
2011,05,19,13,30,17.70
2011,05,19,13,31,17.80
2011,05,19,13,32,17.80
2011,05,19,13,33,17.90
2011,05,19,13,34,17.90
2011,05,19,13,35,17.90
2011,05,19,13,36,17.80
2011,05,19,13,37,17.80
2011,05,19,13,38,17.90
2011,05,19,13,39,17.90
2011,05,19,13,40,17.90
2011,05,19,13,41,18.00
2011,05,19,13,42,18.10
2011,05,19,13,43,18.20
2011,05,19,13,44,18.30
2011,05,19,13,45,18.40
2011,05,19,13,46,18.40
2011,05,19,13,47,18.50
2011,05,19,13,48,18.60
2011,05,19,13,49,18.70
2011,05,19,13,50,18.80
2011,05,19,13,51,18.90
2011,05,19,13,52,18.90
2011,05,19,13,53,18.90
2011,05,19,13,54,18.90
2011,05,19,13,55,18.80
2011,05,19,13,56,18.80
2011,05,19,13,57,18.80
2011,05,19,13,58,18.60
2011,05,19,13,59,18.50
2011,05,19,14,00,18.40
2011,05,19,14,01,18.40
2011,05,19,14,02,18.40
2011,05,19,14,03,18.30
2011,05,19,14,04,18.20
2011,05,19,14,05,18.20
2011,05,19,14,06,18.20
2011,05,19,14,07,18.20
2011,05,19,14,08,18.40
2011,05,19,14,09,18.50
2011,05,19,14,10,18.70
2011,05,19,14,11,18.90
2011,05,19,14,12,19.00
2011,05,19,14,13,19.10
2011,05,19,14,14,19.10
2011,05,19,14,15,19.10
2011,05,19,14,16,19.10
2011,05,19,14,17,19.00
2011,05,19,14,18,18.90
2011,05,19,14,19,18.90
2011,05,19,14,20,18.90
2011,05,19,14,21,18.90
2011,05,19,14,22,18.90
2011,05,19,14,23,18.90
2011,05,19,14,24,18.90
2011,05,19,14,25,18.90
2011,05,19,14,26,18.90
2011,05,19,14,27,18.90
2011,05,19,14,28,18.90
2011,05,19,14,29,18.90
2011,05,19,14,30,18.80
2011,05,19,14,31,18.80
2011,05,19,14,32,18.90
2011,05,19,14,33,18.90
2011,05,19,14,34,18.90
2011,05,19,14,35,19.00
2011,05,19,14,36,19.10
2011,05,19,14,37,19.00
2011,05,19,14,38,19.10
2011,05,19,14,39,19.00
2011,05,19,14,40,18.90
2011,05,19,14,41,18.90
2011,05,19,14,42,19.00
2011,05,19,14,43,19.10
2011,05,19,14,44,19.10
2011,05,19,14,45,19.10
2011,05,19,14,46,19.20
2011,05,19,14,47,19.20
2011,05,19,14,48,19.30
2011,05,19,14,49,19.30
2011,05,19,14,50,19.40
2011,05,19,14,51,19.40
2011,05,19,14,52,19.50
2011,05,19,14,53,19.60
2011,05,19,14,54,19.70
2011,05,19,14,55,19.70
2011,05,19,14,56,19.60
2011,05,19,14,57,19.50
2011,05,19,14,58,19.50
2011,05,19,14,59,19.40
2011,05,19,15,00,19.40
2011,05,19,15,01,19.40
2011,05,19,15,02,19.40
2011,05,19,15,03,19.40
2011,05,19,15,04,19.30
2011,05,19,15,05,19.30
2011,05,19,15,06,19.30
2011,05,19,15,07,19.20
2011,05,19,15,08,19.10
2011,05,19,15,09,19.10
2011,05,19,15,10,19.10
2011,05,19,15,11,19.10
2011,05,19,15,12,18.90
2011,05,19,15,13,18.90
2011,05,19,15,14,18.90
2011,05,19,15,15,18.90
2011,05,19,15,16,18.90
2011,05,19,15,17,18.90
2011,05,19,15,18,18.90
2011,05,19,15,19,18.90
2011,05,19,15,20,18.90
2011,05,19,15,21,18.80
2011,05,19,15,22,18.80
2011,05,19,15,23,18.80
2011,05,19,15,24,18.70
2011,05,19,15,25,18.70
2011,05,19,15,26,18.70
2011,05,19,15,27,18.60
2011,05,19,15,28,18.70
2011,05,19,15,29,18.70
2011,05,19,15,30,18.70
2011,05,19,15,31,18.70
2011,05,19,15,32,18.70
2011,05,19,15,33,18.70
2011,05,19,15,34,18.70
2011,05,19,15,35,18.60
2011,05,19,15,36,18.60
2011,05,19,15,37,18.60
2011,05,19,15,38,18.60
2011,05,19,15,39,18.60
2011,05,19,15,40,18.60
2011,05,19,15,41,18.70
2011,05,19,15,42,18.70
2011,05,19,15,43,18.70
2011,05,19,15,44,18.80
2011,05,19,15,45,18.80
2011,05,19,15,46,18.90
2011,05,19,15,47,18.90
2011,05,19,15,48,18.80
2011,05,19,15,49,18.80
2011,05,19,15,50,18.80
2011,05,19,15,51,18.80
2011,05,19,15,52,18.70
2011,05,19,15,53,18.70
2011,05,19,15,54,18.60
2011,05,19,15,55,18.50
2011,05,19,15,56,18.50
2011,05,19,15,57,18.40
2011,05,19,15,58,18.40
2011,05,19,15,59,18.30
2011,05,19,16,00,18.30
2011,05,19,16,01,18.30
2011,05,19,16,02,18.30
2011,05,19,16,03,18.30
2011,05,19,16,04,18.30
2011,05,19,16,05,18.30
2011,05,19,16,06,18.30
2011,05,19,16,07,18.30
2011,05,19,16,08,18.30
2011,05,19,16,09,18.30
2011,05,19,16,10,18.30
2011,05,19,16,11,18.20
2011,05,19,16,12,18.20
2011,05,19,16,13,18.20
2011,05,19,16,14,18.10
2011,05,19,16,15,18.10
2011,05,19,16,16,18.10
2011,05,19,16,17,17.90
2011,05,19,16,18,17.90
2011,05,19,16,19,17.90
2011,05,19,16,20,17.90
2011,05,19,16,21,17.90
2011,05,19,16,22,17.90
2011,05,19,16,23,17.90
2011,05,19,16,24,17.90
2011,05,19,16,25,17.90
2011,05,19,16,26,17.90
2011,05,19,16,27,17.90
2011,05,19,16,28,17.90
2011,05,19,16,29,17.90
2011,05,19,16,30,17.90
2011,05,19,16,31,17.90
2011,05,19,16,32,17.90
2011,05,19,16,33,17.90
2011,05,19,16,34,17.90
2011,05,19,16,35,17.90
2011,05,19,16,36,17.90
2011,05,19,16,37,17.90
2011,05,19,16,38,17.90
2011,05,19,16,39,17.90
2011,05,19,16,40,17.90
2011,05,19,16,41,17.90
2011,05,19,16,42,17.90
2011,05,19,16,43,17.90
2011,05,19,16,44,17.90
2011,05,19,16,45,17.90
2011,05,19,16,46,17.90
2011,05,19,16,47,18.00
2011,05,19,16,48,18.10
2011,05,19,16,49,18.10
2011,05,19,16,50,18.10
2011,05,19,16,51,17.90
2011,05,19,16,52,17.90
2011,05,19,16,53,17.90
2011,05,19,16,54,17.90
2011,05,19,16,55,17.90
2011,05,19,16,56,17.90
2011,05,19,16,57,17.90
2011,05,19,16,58,17.90
2011,05,19,16,59,17.90
2011,05,19,17,00,17.90
2011,05,19,17,01,17.90
2011,05,19,17,02,17.90
2011,05,19,17,03,17.90
2011,05,19,17,04,17.90
2011,05,19,17,05,17.90
2011,05,19,17,06,17.90
2011,05,19,17,07,17.90
2011,05,19,17,08,17.90
2011,05,19,17,09,17.90
2011,05,19,17,10,17.90
2011,05,19,17,11,17.90
2011,05,19,17,12,17.90
2011,05,19,17,13,17.90
2011,05,19,17,14,17.90
2011,05,19,17,15,17.90
2011,05,19,17,16,17.90
2011,05,19,17,17,17.90
2011,05,19,17,18,17.90
2011,05,19,17,19,17.90
2011,05,19,17,20,17.90
2011,05,19,17,21,17.90
2011,05,19,17,22,17.90
2011,05,19,17,23,17.90
2011,05,19,17,24,17.90
2011,05,19,17,25,17.90
2011,05,19,17,26,17.90
2011,05,19,17,27,17.90
2011,05,19,17,28,17.90
2011,05,19,17,29,17.90
2011,05,19,17,30,17.90
2011,05,19,17,31,17.90
2011,05,19,17,32,17.90
2011,05,19,17,33,17.90
2011,05,19,17,34,17.90
2011,05,19,17,35,17.90
2011,05,19,17,36,17.90
2011,05,19,17,37,17.90
2011,05,19,17,38,17.90
2011,05,19,17,39,17.90
2011,05,19,17,40,17.90
2011,05,19,17,41,17.90
2011,05,19,17,42,17.90